Simultaneous Nadir Overpasses (SNOs) Predictions

Prediction of SNOs between AQUA and METOP-C Satellite Orbit:

Table of predicted SNOs for the next 14.0 days since TLE Epoch: 7/18/2020
Index Date (AQUA) Time (AQUA) Lat,Lon (AQUA) SZA (AQUA ) Date (METOP-C) Time (METOP-C) Lat,Lon (METOP-C) SZA (METOP-C ) Distance(km) Time Diff (sec)
1 07/18/2020 23:57:40 73.72, 175.07 52.98 07/18/2020 23:56:42 73.74, 175.15 53.01 3.24 58
2 07/19/2020 00:47:07 -73.80, -17.45 126.93 07/19/2020 00:47:22 -73.81, -17.36 126.93 3.25 15
3 07/19/2020 01:36:45 74.34, 148.95 53.66 07/19/2020 01:37:52 74.31, 151.21 53.54 68.01 67
4 07/21/2020 19:31:56 73.74,-118.54 53.54 07/21/2020 19:31:04 73.75,-118.43 53.55 3.41 52
5 07/21/2020 20:21:22 -73.77, 49.05 126.43 07/21/2020 20:21:45 -73.77, 48.94 126.43 3.36 23
6 07/24/2020 15:06:11 73.72, -52.05 54.10 07/24/2020 15:05:27 73.70, -52.13 54.10 3.08 44
7 07/24/2020 15:55:38 -73.79, 115.43 125.81 07/24/2020 15:56:06 -73.82, 115.48 125.79 3.14 28
8 07/27/2020 10:40:26 73.75, 14.32 54.76 07/27/2020 10:39:47 73.76, 14.40 54.77 2.60 39
9 07/27/2020 11:29:53 -73.83,-178.20 125.15 07/27/2020 11:30:27 -73.82,-178.11 125.17 2.81 34
10 07/30/2020 06:14:41 73.73, 80.79 55.41 07/30/2020 06:14:09 73.76, 80.81 55.44 2.63 32
11 07/30/2020 07:04:08 -73.81,-111.73 124.51 07/30/2020 07:04:49 -73.82,-111.70 124.50 1.66 41
